Hourly Data Report for October 21, 2015

All times are specified in Local Standard Time (LST). Add 1 hour to adjust for Daylight Saving Time where and when it is observed.

GJOA HAVEN A
NUNAVUT

68°38'08.000" N
95°51'01.000" W
46.90 m
2302337
71597
YHK

Download Data

Hourly Data (October 2015)
Hourly Data Report for October 21, 2015
Temp Definition
°C
Dew Point Temp Definition
°C
Rel Hum Definition
%
Wind Dir Definition
10's deg

Wind Spd Definition
km/h
Visibility Definition
km
Stn Press Definition
kPa
Hmdx Definition


Wind Chill Definition


Weather Definition


TIME
00:00 Legend Double Dagger -12.4 -13.6 91 33 35 4.8 100.88   -23 Snow
01:00 Legend Double Dagger -13.2 -14.5 90 33 37 4.8 100.99   -25 Fog
02:00 Legend Double Dagger -12.9 -14.1 91 33 28 16.1 101.11   -23 LegendNANA
03:00 Legend Double Dagger -13.4 -14.7 90 33 28 16.1 101.22   -24 LegendNANA
04:00 Legend Double Dagger -14.6 -16.0 89 33 32 14.5 101.31   -26 LegendNANA
05:00 Legend Double Dagger -14.8 -16.2 89 34 32 16.1 101.38   -26 LegendNANA
06:00 Legend Double Dagger -15.1 -16.5 89 33 28 16.1 101.44   -26 LegendNANA
07:00 Legend Double Dagger -13.8 -15.4 88 35 24 16.1 101.49   -23 Snow
08:00 Legend Double Dagger -12.6 -14.3 87 33 22 16.1 101.56   -22 Snow
09:00 Legend Double Dagger -13.0 -14.7 87 33 24 16.1 101.60   -22 Snow
10:00 Legend Double Dagger -12.9 -14.6 87 31 22 16.1 101.63   -22 Snow
11:00 Legend Double Dagger -12.9 -14.5 88 32 22 16.1 101.65   -22 Snow
12:00 Legend Double Dagger -13.8 -15.4 88 30 17 16.1 101.71   -22 LegendNANA
13:00 Legend Double Dagger -14.1 -15.7 88 28 17 16.1 101.73   -22 LegendNANA
14:00 Legend Double Dagger -15.0 -16.4 89 28 17 16.1 101.72   -23 LegendNANA
15:00 Legend Double Dagger -15.2 -16.5 90 27 18 16.1 101.73   -24 LegendNANA
16:00 Legend Double Dagger -16.4 -17.8 89 26 9 16.1 101.73   -22 LegendNANA
17:00 Legend Double Dagger -14.4 -15.4 92 30 21 16.1 101.72   -24 LegendNANA
18:00 Legend Double Dagger -12.3 -13.3 92 28 21 16.1 101.72   -21 Snow
19:00 Legend Double Dagger -12.4 -13.4 92 27 15 16.1 101.70   -20 LegendNANA
20:00 Legend Double Dagger -12.6 -13.7 92 28 22 16.1 101.65   -22 LegendNANA
21:00 Legend Double Dagger -11.6 -12.7 92 26 32 16.1 101.63   -22 LegendNANA
22:00 Legend Double Dagger -10.7 -11.8 92 26 21 16.1 101.60   -19 Snow
23:00 Legend Double Dagger -10.7 -11.9 91 25 21 16.1 101.56   -19 Snow

Notes on Data Quality.

Legend

  • E = Estimated
  • M = Missing
  • NA = Not Available
  • ‡ = Partner data that is not subject to review by the National Climate Archives
Date modified: